TimeCDT,TemperatureF,Dew PointF,Humidity,Sea Level PressureIn,VisibilityMPH,Wind Direction,Wind SpeedMPH,Gust SpeedMPH,PrecipitationIn,Events,Conditions,WindDirDegrees,DateUTC
12:09 AM,53.6,50.0,88,29.99,2.5,Calm,Calm,-,N/A,,Overcast,0,2012-10-04 05:09:00
12:21 AM,53.6,50.0,88,29.99,4.0,Calm,Calm,-,N/A,,Overcast,0,2012-10-04 05:21:00
12:53 AM,54.0,52.0,93,29.99,4.0,Calm,Calm,-,N/A,,Overcast,0,2012-10-04 05:53:00
1:53 AM,55.9,54.0,93,29.99,4.0,South,3.5,-,N/A,,Overcast,170,2012-10-04 06:53:00
2:53 AM,55.0,53.1,93,29.97,4.0,Calm,Calm,-,N/A,,Overcast,0,2012-10-04 07:53:00
3:26 AM,53.6,51.8,94,29.96,2.0,Calm,Calm,-,N/A,,Scattered Clouds,0,2012-10-04 08:26:00
3:33 AM,53.6,51.8,94,29.96,1.2,Calm,Calm,-,N/A,,Partly Cloudy,0,2012-10-04 08:33:00
3:45 AM,53.6,51.8,94,29.96,0.8,Calm,Calm,-,N/A,,Clear,0,2012-10-04 08:45:00
3:53 AM,52.0,50.0,93,29.96,0.8,Calm,Calm,-,N/A,,Clear,0,2012-10-04 08:53:00
4:13 AM,50.0,48.2,94,29.96,0.2,Calm,Calm,-,N/A,Fog,Fog,0,2012-10-04 09:13:00
4:53 AM,48.9,48.0,97,29.96,0.2,SSE,3.5,-,N/A,Fog,Fog,160,2012-10-04 09:53:00
5:26 AM,46.4,44.6,93,29.95,0.5,Calm,Calm,-,N/A,Fog,Fog,0,2012-10-04 10:26:00
5:31 AM,46.4,46.4,100,29.95,0.2,Calm,Calm,-,N/A,Fog,Fog,0,2012-10-04 10:31:00
5:42 AM,48.2,48.2,100,29.95,2.0,Calm,Calm,-,N/A,,Clear,0,2012-10-04 10:42:00
5:53 AM,48.9,48.9,100,29.95,2.0,Calm,Calm,-,N/A,,Clear,0,2012-10-04 10:53:00
6:04 AM,46.4,46.4,100,29.95,2.0,Calm,Calm,-,N/A,,Partly Cloudy,0,2012-10-04 11:04:00
6:53 AM,48.9,48.0,97,29.95,2.0,South,4.6,-,N/A,,Clear,180,2012-10-04 11:53:00
7:13 AM,48.2,48.2,100,29.94,3.0,South,3.5,-,N/A,,Scattered Clouds,190,2012-10-04 12:13:00
7:53 AM,52.0,51.1,97,29.95,3.0,South,4.6,-,N/A,,Overcast,170,2012-10-04 12:53:00
8:53 AM,57.9,53.1,84,29.93,7.0,South,9.2,-,N/A,,Partly Cloudy,190,2012-10-04 13:53:00
9:53 AM,64.0,53.1,67,29.92,8.0,South,11.5,-,N/A,,Clear,190,2012-10-04 14:53:00
10:53 AM,69.1,51.1,53,29.91,10.0,SSW,11.5,-,N/A,,Clear,210,2012-10-04 15:53:00
11:53 AM,68.0,50.0,52,29.87,10.0,SSW,12.7,21.9,N/A,,Scattered Clouds,210,2012-10-04 16:53:00
12:53 PM,70.0,51.1,51,29.87,10.0,SSW,15.0,25.3,N/A,,Partly Cloudy,210,2012-10-04 17:53:00
1:53 PM,69.1,50.0,51,29.86,10.0,SSW,11.5,21.9,N/A,,Scattered Clouds,210,2012-10-04 18:53:00
2:53 PM,69.1,46.9,45,29.87,10.0,SW,17.3,25.3,N/A,,Partly Cloudy,220,2012-10-04 19:53:00
3:53 PM,66.9,42.1,40,29.88,10.0,WSW,15.0,25.3,N/A,,Mostly Cloudy,250,2012-10-04 20:53:00
4:53 PM,64.9,39.9,40,29.90,10.0,WSW,15.0,21.9,N/A,,Overcast,250,2012-10-04 21:53:00
5:53 PM,62.1,37.0,39,29.91,10.0,West,18.4,27.6,N/A,,Clear,260,2012-10-04 22:53:00
6:53 PM,57.9,35.1,42,29.94,10.0,West,20.7,27.6,N/A,,Clear,270,2012-10-04 23:53:00
7:53 PM,54.0,34.0,47,29.97,10.0,West,17.3,25.3,N/A,,Clear,270,2012-10-05 00:53:00
8:53 PM,52.0,33.1,49,29.99,10.0,West,13.8,24.2,N/A,,Clear,270,2012-10-05 01:53:00
9:53 PM,50.0,32.0,50,30.01,10.0,West,21.9,31.1,N/A,,Clear,270,2012-10-05 02:53:00
10:53 PM,46.9,30.9,54,30.02,10.0,West,13.8,-,N/A,,Clear,260,2012-10-05 03:53:00
11:53 PM,45.0,30.9,58,30.03,10.0,West,15.0,19.6,N/A,,Clear,270,2012-10-05 04:53:00